BAW1350 EGLL-EGHQ

Flight info

Callsign BAW1350
Flight time N/A
Altitude 24000
Route GASGU N866 SAM/N0372F240 L620 DAWLY
Aircraft A319/M-VGDW/C

Departure

Time 2026-05-04 15:56
Airport London Heathrow Airport (EGLL)

Arrival

Time N/A
Airport Cornwall Airport Newquay (EGHQ)
Time Latitude Longitude Altitude Speed Heading
2026-05-04 15:42 51.47402 -0.48829 79 ft 0 kts 180°
2026-05-04 15:49 51.47407 -0.48830 79 ft 1 kts 180°
2026-05-04 15:49 51.47419 -0.48830 79 ft 2 kts 180°
2026-05-04 15:49 51.47438 -0.48831 80 ft 3 kts 168°
2026-05-04 15:49 51.47459 -0.48847 80 ft 3 kts 136°
2026-05-04 15:50 51.47471 -0.48866 80 ft 8 kts 77°
2026-05-04 15:50 51.47488 -0.48408 79 ft 63 kts 87°
2026-05-04 15:50 51.47492 -0.47678 81 ft 67 kts 89°
2026-05-04 15:50 51.47503 -0.46990 81 ft 42 kts 59°
2026-05-04 15:51 51.47591 -0.46671 83 ft 31 kts 91°
2026-05-04 15:51 51.47596 -0.46333 81 ft 30 kts 90°
2026-05-04 15:51 51.47597 -0.46009 82 ft 28 kts 91°
2026-05-04 15:51 51.47595 -0.45704 85 ft 25 kts 90°
2026-05-04 15:52 51.47597 -0.45423 87 ft 24 kts 90°
2026-05-04 15:52 51.47597 -0.45170 91 ft 21 kts 91°
2026-05-04 15:52 51.47594 -0.44934 92 ft 20 kts 88°
2026-05-04 15:52 51.47596 -0.44699 91 ft 21 kts 92°
2026-05-04 15:53 51.47596 -0.44465 91 ft 21 kts 87°
2026-05-04 15:53 51.47591 -0.44229 89 ft 22 kts 91°
2026-05-04 15:53 51.47592 -0.43972 85 ft 23 kts 91°
2026-05-04 15:53 51.47594 -0.43699 80 ft 25 kts 90°
2026-05-04 15:54 51.47625 -0.43509 80 ft 14 kts 49°
2026-05-04 15:54 51.47702 -0.43423 81 ft 13 kts
2026-05-04 15:54 51.47769 -0.43490 83 ft 12 kts 271°
2026-05-04 15:54 51.47769 -0.43610 83 ft 0 kts 270°
2026-05-04 15:55 51.47769 -0.43620 83 ft 7 kts 270°
2026-05-04 15:55 51.47769 -0.44110 89 ft 75 kts 267°
2026-05-04 15:55 51.47772 -0.45294 88 ft 135 kts 269°
2026-05-04 15:55 51.47757 -0.47096 160 ft 180 kts 272°
2026-05-04 15:56 51.47753 -0.49257 546 ft 202 kts 271°
2026-05-04 15:56 51.47527 -0.51532 1160 ft 219 kts 252°
2026-05-04 15:56 51.46852 -0.53792 1868 ft 233 kts 241°
2026-05-04 15:56 51.45917 -0.55974 2524 ft 249 kts 224°
2026-05-04 15:57 51.44495 -0.57692 3124 ft 266 kts 217°
2026-05-04 15:57 51.43137 -0.59720 3931 ft 274 kts 227°
2026-05-04 15:57 51.41822 -0.61903 4928 ft 275 kts 227°
2026-05-04 15:57 51.40499 -0.64083 5902 ft 277 kts 227°
2026-05-04 15:58 51.39164 -0.66268 6829 ft 279 kts 225°
2026-05-04 15:58 51.37817 -0.68459 7734 ft 281 kts 225°
2026-05-04 15:58 51.36449 -0.70677 8628 ft 283 kts 225°
2026-05-04 15:58 51.35080 -0.72893 9472 ft 285 kts 225°
2026-05-04 15:59 51.33690 -0.75136 10280 ft 287 kts 225°
2026-05-04 15:59 51.32278 -0.77407 11042 ft 290 kts 225°
2026-05-04 15:59 51.30863 -0.79681 11764 ft 293 kts 225°
2026-05-04 15:59 51.29390 -0.82047 12206 ft 307 kts 225°
2026-05-04 16:00 51.27828 -0.84554 12514 ft 324 kts 225°
2026-05-04 16:00 51.26302 -0.87002 12793 ft 340 kts 225°
2026-05-04 16:00 51.24613 -0.89706 13098 ft 355 kts 225°
2026-05-04 16:00 51.22841 -0.92541 13644 ft 363 kts 224°
2026-05-04 16:01 51.21053 -0.95400 14329 ft 365 kts 224°
2026-05-04 16:01 51.19233 -0.98262 15011 ft 368 kts 224°
2026-05-04 16:01 51.17387 -1.01107 15649 ft 371 kts 223°
2026-05-04 16:01 51.15500 -1.04000 16274 ft 375 kts 223°
2026-05-04 16:02 51.13613 -1.06893 16881 ft 378 kts 223°
2026-05-04 16:02 51.11745 -1.09757 17466 ft 381 kts 223°
2026-05-04 16:02 51.07888 -1.15667 18631 ft 388 kts 223°
2026-05-04 16:03 51.05945 -1.18640 19205 ft 391 kts 223°
2026-05-04 16:03 51.03981 -1.21639 19660 ft 396 kts 223°
2026-05-04 16:03 51.01965 -1.24716 19865 ft 408 kts 223°
2026-05-04 16:03 50.99880 -1.27893 20130 ft 417 kts 223°
2026-05-04 16:04 50.97825 -1.31110 20576 ft 421 kts 227°
2026-05-04 16:04 50.94797 -1.39044 21629 ft 427 kts 248°
2026-05-04 16:04 50.93930 -1.43573 22129 ft 430 kts 253°
2026-05-04 16:05 50.93159 -1.48143 22593 ft 432 kts 253°
2026-05-04 16:05 50.92389 -1.52774 23051 ft 434 kts 253°
2026-05-04 16:05 50.90818 -1.62095 23917 ft 438 kts 253°
2026-05-04 16:06 50.90024 -1.66739 23993 ft 437 kts 252°
2026-05-04 16:06 50.87892 -1.79075 23999 ft 437 kts 252°
2026-05-04 16:07 50.86813 -1.85278 24000 ft 438 kts 252°
2026-05-04 16:07 50.84381 -1.99179 23997 ft 438 kts 252°
2026-05-04 16:08 50.83562 -2.03843 23994 ft 438 kts 252°
2026-05-04 16:08 50.81097 -2.17773 24002 ft 438 kts 252°
2026-05-04 16:09 50.79453 -2.27015 23999 ft 437 kts 252°
2026-05-04 16:09 50.77786 -2.36330 23998 ft 438 kts 252°
2026-05-04 16:10 50.76131 -2.45528 23992 ft 431 kts 252°
2026-05-04 16:11 50.73744 -2.58725 23997 ft 413 kts 252°
2026-05-04 16:11 50.72950 -2.63089 23993 ft 413 kts 252°
2026-05-04 16:12 50.70668 -2.75570 22785 ft 406 kts 251°
2026-05-04 16:12 50.68328 -2.88312 20958 ft 400 kts 251°
2026-05-04 16:13 50.66781 -2.96686 19827 ft 396 kts 251°
2026-05-04 16:13 50.65243 -3.04965 18725 ft 392 kts 251°
2026-05-04 16:14 50.63718 -3.13129 17685 ft 387 kts 251°
2026-05-04 16:14 50.62201 -3.21215 16672 ft 381 kts 251°
2026-05-04 16:15 50.60065 -3.32567 15014 ft 346 kts 251°
2026-05-04 16:16 50.58702 -3.39742 13189 ft 339 kts 251°
2026-05-04 16:16 50.56847 -3.50191 10610 ft 328 kts 255°
2026-05-04 16:17 50.55801 -3.57052 8902 ft 321 kts 256°
2026-05-04 16:18 50.54264 -3.67097 6435 ft 311 kts 256°
2026-05-04 16:18 50.53762 -3.70356 5614 ft 307 kts 256°
2026-05-04 16:19 50.52277 -3.79955 3260 ft 298 kts 256°
2026-05-04 16:19 50.51300 -3.86238 2484 ft 294 kts 256°
2026-05-04 16:20 50.49826 -3.95669 2465 ft 295 kts 256°
2026-05-04 16:20 50.48844 -4.01917 2468 ft 295 kts 257°
2026-05-04 16:21 50.47362 -4.11307 2471 ft 294 kts 257°
2026-05-04 16:22 50.46368 -4.17577 2478 ft 295 kts 257°
2026-05-04 16:22 50.44871 -4.26965 2489 ft 294 kts 257°
2026-05-04 16:23 50.43373 -4.36306 2494 ft 294 kts 257°
2026-05-04 16:24 50.41369 -4.48726 2492 ft 294 kts 257°
2026-05-04 16:25 50.40361 -4.54938 2490 ft 293 kts 257°
2026-05-04 16:26 50.38432 -4.66755 2481 ft 249 kts 256°
2026-05-04 16:26 50.37246 -4.73959 2481 ft 209 kts 257°
2026-05-04 16:27 50.36538 -4.78280 2483 ft 196 kts 258°
2026-05-04 16:28 50.37875 -4.83557 2488 ft 174 kts 308°
2026-05-04 16:28 50.39844 -4.88246 1821 ft 169 kts 302°
2026-05-04 16:29 50.42133 -4.94379 938 ft 146 kts 303°
2026-05-04 16:30 50.43649 -4.98433 400 ft 146 kts 302°
2026-05-04 16:31 50.44528 -5.00720 313 ft 68 kts 301°